Location: Diebersbach
(48.5163°N, 8.0558°E)
Time: 22:21:04
(UTC+00:00)

USA 229 - Pass Details

Date: 30 October 2021
Orbit: 946 x 1266 km, 63.4° (Epoch: 25 November)

Event Time Altitude Azimuth Distance (km) Brightness Sun altitude
Rises 18:28:47 0° 250° (WSW) 3,676 7.6 -23.2°
Reaches altitude 10° 18:31:27 10° 258° (WSW) 2,763 6.8 -23.7°
Maximum altitude 18:37:33 41° 328° (NNW) 1,475 4.7 -24.7°
Enters shadow 18:42:28 17° 30° (NNE) 2,443 5.3 -25.5°
